Regional Weather Roundup
Issued by NWS

Home | Current Version | Previous Version | Text Only | Print | Product List | Glossary Off
Versions: 1 2 3 4 5 6 7 8 9 10 11 12 13 14 15 16 17 18 19 20 21 22 23 24 25 26 27 28 29 30 31 32 33 34 35 36 37 38 39 40 41 42 43 44 45 46 47 48 49 50

000
ASUS43 KLMK 021102
RWRKY
KENTUCKY REGIONAL WEATHER ROUNDUP
NATIONAL WEATHER SERVICE LOUISVILLE KY
600 AM EST MON MAR 02 2015

NOTE "FAIR" INDICATES FEW OR NO CLOUDS BELOW 12,000 FEET
WITH NO SIGNIFICANT WEATHER AND/OR OBSTRUCTIONS TO VISIBILITY.

KYZ001>023-026-027-061>063-070>075-021200-
WESTERN AND SOUTH CENTRAL KENTUCKY

CITY           SKY/WX    TMP DP  RH WIND       PRES   REMARKS
PADUCAH        PTCLDY    28  21  75 NE12      30.51R WCI  18
HENDERSON      CLEAR     27  19  74 N3        30.52R
OWENSBORO      CLEAR     26  20  78 N3        30.52R
HOPKINSVILLE   CLOUDY    30  25  82 N10       30.49R WCI  21
BOWLING GREEN  CLOUDY    31  25  78 N8        30.47R WCI  23
GLASGOW        NOT AVBL
$$

KYZ024-025-028>034-038-045-046-053-021200-
NORTH CENTRAL KENTUCKY

CITY           SKY/WX    TMP DP  RH WIND       PRES   REMARKS
LOUISVILLE/SDF PTCLDY    26  20  77 N7        30.49R WCI  18
LOUISVILLE/LOU CLEAR     27  19  72 N7        30.49R WCI  19
FORT KNOX      CLEAR     25  20  81 NW6       30.46R WCI  18
$$

KYZ035>037-039>044-047>052-055>060-089>105-021200-
NORTHEAST KENTUCKY

CITY           SKY/WX    TMP DP  RH WIND       PRES   REMARKS
LEXINGTON      MOCLDY    27  22  81 NW13      30.45R WCI  16
COVINGTON      PTCLDY    23  17  78 NW12      30.45R WCI  12
FRANKFORT      CLOUDY    28  21  75 N7        30.45R WCI  21
$$

KYZ054-064>069-076>088-106>120-021200-
SOUTHEAST KENTUCKY

CITY           SKY/WX    TMP DP  RH WIND       PRES   REMARKS
JACKSON        CLOUDY    32  30  92 VRB7      30.37R FOG     WCI  26
LONDON         LGT RAIN  34  30  85 NW8       30.39R FOG     WCI  27
SOMERSET       NOT AVBL
MIDDLESBORO    NOT AVBL
MONTICELLO     LGT SNOW  34  33  96 N7        30.45R FOG     WCI  28
$$




USA.gov is the U.S. government's official web portal to all federal, state and local government web resources and services.